This is the latest recevied weather packets stored in our database for station/object W5CRT. If no packets are shown the sender has not sent any weather packets the latest 10 day(s).
| Time | Temp. | Humidity | Pressure | Rain* | Wind** | Luminosity | Snow |
|---|---|---|---|---|---|---|---|
| 1777676830 | 17.78° C | 62% | 1013.5 hPa | 0 mm | - | 113 W/m² | - |
| 1777676528 | 17.78° C | 61% | 1013.3 hPa | 0 mm | - | 135 W/m² | - |
| 1777676225 | 17.78° C | 61% | 1013.5 hPa | 0 mm | - | 135 W/m² | - |
| 1777675922 | 17.78° C | 61% | 1013.2 hPa | 0 mm | - | 155 W/m² | - |
| 1777675618 | 17.78° C | 59% | 1013.2 hPa | 0 mm | - | 163 W/m² | - |
| 1777675316 | 17.78° C | 60% | 1013.2 hPa | 0 mm | - | 171 W/m² | - |
| 1777675012 | 17.78° C | 60% | 1013.2 hPa | 0 mm | - | 203 W/m² | - |
| 1777674709 | 17.78° C | 61% | 1013 hPa | 0 mm | - | 232 W/m² | - |
| 1777674405 | 17.78° C | 62% | 1013.4 hPa | 0 mm | - | 204 W/m² | - |
| 1777674103 | 17.78° C | 61% | 1013 hPa | 0 mm | - | 218 W/m² | - |
| 1777673799 | 17.78° C | 60% | 1013 hPa | 0 mm | - | 198 W/m² | - |
| 1777673496 | 17.78° C | 62% | 1013.4 hPa | 0 mm | - | 162 W/m² | - |
| 1777673194 | 17.78° C | 59% | 1013.3 hPa | 0 mm | - | 170 W/m² | - |
| 1777672890 | 17.78° C | 58% | 1013.5 hPa | 0 mm | - | 169 W/m² | - |
| 1777672587 | 17.78° C | 59% | 1013.2 hPa | 0 mm | - | 181 W/m² | - |
| 1777672282 | 17.78° C | 61% | 1013.3 hPa | 0 mm | - | 173 W/m² | - |
| 1777671978 | 17.78° C | 59% | 1013 hPa | 0 mm | - | 158 W/m² | - |
| 1777671673 | 17.78° C | 57% | 1013.1 hPa | 0 mm | - | 124 W/m² | - |
| 1777671371 | 17.78° C | 57% | 1013.1 hPa | 0 mm | - | 150 W/m² | - |
| 1777671067 | 17.78° C | 55% | 1013.1 hPa | 0 mm | - | 234 W/m² | - |
| 1777670763 | 17.78° C | 56% | 1013.1 hPa | 0 mm | - | 250 W/m² | - |
| 1777670460 | 17.78° C | 55% | 1013.1 hPa | 0 mm | - | 270 W/m² | - |
| 1777670156 | 17.78° C | 56% | 1013.1 hPa | 0 mm | - | 290 W/m² | - |
| 1777669855 | 18.33° C | 55% | 1013.5 hPa | 0 mm | - | 290 W/m² | - |
| 1777669550 | 18.33° C | 57% | 1013.5 hPa | 0 mm | - | 416 W/m² | - |
* Rain latest hour (hover to see other rain measurements)
** Current wind speed in m/s (hover to see current wind gust speed)